When you browse on this site, cookies collect data to enhance your experience and personalize the content and advertising you see.
Visit our Privacy Policy to learn more. By continuing to use the site, you agree to this use of cookies and data.
  • En España
  • Lista de países
  • Para 7 días
  • Temperatura del agua
  • Mapa Satelital
  • El tiempo en el mapa
  • Informadores
  • user-avatar
    Iniciar sesión

    Tiempo cada hora Ischgl

    Hoy, 21 Julio, Domingo

    Tiempo Temperatura Precipitaciones Viento Presión Humedad
    00:00 +8°C° 0 mm 0 mps 579 mmHg 85%
    01:00 +8°C° 0 mm 0 mps 579 mmHg 85%
    02:00 +8°C° 0 mm 0 mps 579 mmHg 85%
    03:00 +7°C° 0 mm 0 mps 578 mmHg 86%
    04:00 +7°C° 0 mm 0 mps 578 mmHg 86%
    05:00 +8°C° 0 mm 0 mps 579 mmHg 84%
    06:00 +9°C° 0 mm 0 mps 580 mmHg 83%
    07:00 +11°C° 0 mm 1 mps 580 mmHg 81%
    08:00 +12°C° 0.5 mm 1 mps 581 mmHg 78%
    09:00 +13°C° 0.5 mm 1 mps 582 mmHg 75%
    10:00 +14°C° 0.5 mm 2 mps 582 mmHg 73%
    11:00 +14°C° 0.6 mm 2 mps 583 mmHg 72%
    12:00 +15°C° 0.6 mm 2 mps 583 mmHg 72%
    13:00 +15°C° 0.6 mm 2 mps 583 mmHg 72%
    14:00 +15°C° 0.5 mm 2 mps 583 mmHg 71%
    15:00 +15°C° 0.5 mm 2 mps 583 mmHg 71%
    16:00 +15°C° 0.5 mm 2 mps 583 mmHg 71%
    17:00 +15°C° 0.1 mm 2 mps 583 mmHg 73%
    18:00 +14°C° 0.1 mm 2 mps 582 mmHg 76%
    19:00 +13°C° 0.1 mm 2 mps 582 mmHg 78%
    20:00 +11°C° 0 mm 1 mps 581 mmHg 83%
    21:00 +9°C° 0 mm 1 mps 581 mmHg 88%
    22:00 +7°C° 0 mm 0 mps 580 mmHg 93%
    23:00 +6°C° 0 mm 0 mps 580 mmHg 92%

    Mañana, 22 Julio, Lunes

    Tiempo Temperatura Precipitaciones Viento Presión Humedad
    00:00 +6°C° 0 mm 0 mps 580 mmHg 92%
    01:00 +6°C° 0 mm 0 mps 580 mmHg 91%
    02:00 +5°C° 0 mm 0 mps 580 mmHg 90%
    03:00 +5°C° 0 mm 0 mps 580 mmHg 90%
    04:00 +5°C° 0 mm 0 mps 579 mmHg 89%
    05:00 +7°C° 0 mm 0 mps 581 mmHg 82%
    06:00 +9°C° 0 mm 0 mps 582 mmHg 76%
    07:00 +11°C° 0 mm 0 mps 583 mmHg 70%
    08:00 +12°C° 0 mm 0 mps 584 mmHg 62%
    09:00 +15°C° 0 mm 1 mps 584 mmHg 54%
    10:00 +18°C° 0 mm 1 mps 585 mmHg 47%
    11:00 +19°C° 0 mm 1 mps 585 mmHg 43%
    12:00 +20°C° 0 mm 1 mps 586 mmHg 40%
    13:00 +20°C° 0 mm 2 mps 586 mmHg 37%
    14:00 +20°C° 0 mm 2 mps 586 mmHg 38%
    15:00 +20°C° 0 mm 2 mps 586 mmHg 39%
    16:00 +19°C° 0 mm 2 mps 586 mmHg 41%
    17:00 +18°C° 0 mm 2 mps 585 mmHg 51%
    18:00 +17°C° 0 mm 2 mps 584 mmHg 62%
    19:00 +15°C° 0 mm 2 mps 584 mmHg 72%
    20:00 +14°C° 0 mm 1 mps 583 mmHg 78%
    21:00 +12°C° 0 mm 1 mps 582 mmHg 85%
    22:00 +9°C° 0 mm 0 mps 582 mmHg 91%
    23:00 +9°C° 0 mm 0 mps 581 mmHg 91%

    Pasado mañana, 23 Julio, Martes

    Tiempo Temperatura Precipitaciones Viento Presión Humedad
    00:00 +8°C° 0 mm 0 mps 581 mmHg 91%
    01:00 +8°C° 0 mm 0 mps 581 mmHg 91%
    02:00 +7°C° 0 mm 0 mps 580 mmHg 90%
    03:00 +7°C° 0 mm 0 mps 580 mmHg 89%
    04:00 +7°C° 0 mm 0 mps 580 mmHg 89%
    05:00 +9°C° 0 mm 0 mps 581 mmHg 81%
    06:00 +11°C° 0 mm 0 mps 582 mmHg 74%
    07:00 +13°C° 0 mm 0 mps 583 mmHg 66%
    08:00 +15°C° 0 mm 0 mps 583 mmHg 57%
    09:00 +17°C° 0 mm 0 mps 584 mmHg 47%
    10:00 +19°C° 0 mm 0 mps 585 mmHg 38%
    11:00 +21°C° 0 mm 1 mps 585 mmHg 36%
    12:00 +22°C° 0 mm 1 mps 585 mmHg 34%
    13:00 +23°C° 0 mm 1 mps 586 mmHg 32%
    14:00 +23°C° 0 mm 1 mps 585 mmHg 33%
    15:00 +23°C° 0 mm 2 mps 585 mmHg 35%
    16:00 +23°C° 0 mm 2 mps 585 mmHg 36%
    17:00 +21°C° 0.1 mm 2 mps 584 mmHg 47%
    18:00 +20°C° 0.1 mm 1 mps 584 mmHg 58%
    19:00 +19°C° 0.1 mm 1 mps 583 mmHg 69%
    20:00 +16°C° 0.1 mm 1 mps 582 mmHg 76%
    21:00 +14°C° 0.1 mm 1 mps 581 mmHg 82%
    22:00 +11°C° 0.1 mm 0 mps 581 mmHg 89%
    23:00 +11°C° 0 mm 0 mps 580 mmHg 89%

    24 Julio, Miércoles

    Tiempo Temperatura Precipitaciones Viento Presión Humedad
    00:00 +11°C° 0 mm 1 mps 580 mmHg 90%
    01:00 +11°C° 0 mm 1 mps 580 mmHg 90%
    02:00 +11°C° 0 mm 1 mps 580 mmHg 90%
    03:00 +11°C° 0 mm 1 mps 579 mmHg 91%
    04:00 +11°C° 0 mm 1 mps 579 mmHg 91%
    05:00 +12°C° 0 mm 1 mps 580 mmHg 87%
    06:00 +14°C° 0 mm 1 mps 581 mmHg 83%
    07:00 +14°C° 0 mm 0 mps 582 mmHg 78%
    08:00 +18°C° 0.4 mm 1 mps 582 mmHg 72%
    09:00 +19°C° 0.4 mm 1 mps 583 mmHg 66%
    10:00 +21°C° 0.4 mm 1 mps 584 mmHg 60%
    11:00 +21°C° 1.1 mm 1 mps 584 mmHg 59%
    12:00 +21°C° 1.1 mm 1 mps 584 mmHg 58%
    13:00 +21°C° 1.1 mm 1 mps 584 mmHg 56%
    14:00 +21°C° 1.9 mm 1 mps 583 mmHg 60%
    15:00 +20°C° 1.9 mm 1 mps 583 mmHg 64%
    16:00 +20°C° 1.9 mm 1 mps 582 mmHg 68%
    17:00 +18°C° 1 mm 1 mps 582 mmHg 73%
    18:00 +16°C° 1 mm 1 mps 581 mmHg 79%
    19:00 +14°C° 1 mm 0 mps 581 mmHg 84%
    20:00 +13°C° 0.2 mm 0 mps 581 mmHg 84%
    21:00 +13°C° 0.2 mm 0 mps 581 mmHg 85%
    22:00 +12°C° 0.2 mm 0 mps 580 mmHg 85%
    23:00 +11°C° 0 mm 0 mps 580 mmHg 86%

    25 Julio, Jueves

    Tiempo Temperatura Precipitaciones Viento Presión Humedad
    00:00 +11°C° 0 mm 0 mps 580 mmHg 86%
    01:00 +10°C° 0 mm 0 mps 579 mmHg 86%
    02:00 +10°C° 0 mm 0 mps 579 mmHg 86%
    03:00 +10°C° 0 mm 0 mps 579 mmHg 87%
    04:00 +9°C° 0 mm 0 mps 579 mmHg 87%
    05:00 +11°C° 0 mm 0 mps 580 mmHg 82%
    06:00 +14°C° 0 mm 1 mps 581 mmHg 77%
    07:00 +16°C° 0 mm 1 mps 581 mmHg 72%
    08:00 +18°C° 0 mm 1 mps 582 mmHg 65%
    09:00 +20°C° 0 mm 1 mps 583 mmHg 58%
    10:00 +20°C° 0 mm 0 mps 584 mmHg 51%
    11:00 +22°C° 0.3 mm 1 mps 584 mmHg 48%
    12:00 +23°C° 0.3 mm 1 mps 584 mmHg 46%
    13:00 +24°C° 0.3 mm 1 mps 584 mmHg 44%
    14:00 +23°C° 1.1 mm 1 mps 583 mmHg 52%
    15:00 +21°C° 1.1 mm 1 mps 582 mmHg 59%
    16:00 +20°C° 1.1 mm 1 mps 581 mmHg 66%
    17:00 +19°C° 2.4 mm 1 mps 581 mmHg 73%
    18:00 +16°C° 2.4 mm 1 mps 580 mmHg 81%
    19:00 +15°C° 2.4 mm 1 mps 579 mmHg 88%
    20:00 +14°C° 0.5 mm 1 mps 579 mmHg 87%
    21:00 +14°C° 0.5 mm 1 mps 579 mmHg 86%
    22:00 +13°C° 0.5 mm 2 mps 579 mmHg 85%
    23:00 +13°C° 0.2 mm 2 mps 578 mmHg 85%

    26 Julio, Viernes

    Tiempo Temperatura Precipitaciones Viento Presión Humedad
    00:00 +12°C° 0.2 mm 2 mps 578 mmHg 86%
    01:00 +12°C° 0.2 mm 2 mps 578 mmHg 87%
    02:00 +10°C° 0.1 mm 2 mps 578 mmHg 88%
    03:00 +10°C° 0.1 mm 2 mps 577 mmHg 89%
    04:00 +10°C° 0.1 mm 2 mps 577 mmHg 90%
    05:00 +12°C° 0.2 mm 2 mps 578 mmHg 88%
    06:00 +13°C° 0.2 mm 2 mps 578 mmHg 86%
    07:00 +14°C° 0.2 mm 1 mps 579 mmHg 84%
    08:00 +16°C° 0.6 mm 1 mps 580 mmHg 78%
    09:00 +18°C° 0.6 mm 1 mps 580 mmHg 71%
    10:00 +20°C° 0.6 mm 1 mps 581 mmHg 65%
    11:00 +20°C° 1.3 mm 1 mps 581 mmHg 64%
    12:00 +20°C° 1.3 mm 1 mps 581 mmHg 63%
    13:00 +20°C° 1.3 mm 1 mps 581 mmHg 62%
    14:00 +19°C° 1.6 mm 2 mps 580 mmHg 64%
    15:00 +18°C° 1.6 mm 2 mps 580 mmHg 66%
    16:00 +18°C° 1.6 mm 2 mps 580 mmHg 68%
    17:00 +17°C° 1.9 mm 2 mps 580 mmHg 74%
    18:00 +16°C° 1.9 mm 2 mps 579 mmHg 80%
    19:00 +15°C° 1.9 mm 1 mps 579 mmHg 85%
    20:00 +13°C° 0.5 mm 1 mps 578 mmHg 87%
    21:00 +12°C° 0.5 mm 1 mps 578 mmHg 88%
    22:00 +10°C° 0.5 mm 0 mps 577 mmHg 90%
    23:00 +9°C° 0.1 mm 0 mps 577 mmHg 90%
    Mostrar más